Regional Weather Roundup
Issued by NWS Upton, NY

Current Version | Previous Version | Text Only | Print | Product List | Glossary On
Versions: 1 2 3 4 5 6 7 8 9 10 11 12 13 14 15 16 17 18 19 20 21 22 23 24 25 26 27
000
ASUS41 KOKX 280609
RWROKX

REGIONAL WEATHER ROUNDUP
NATIONAL WEATHER SERVICE NEW YORK NY
200 AM EDT FRI APR 28 2017

NOTE: "FAIR" INDICATES FEW OR NO CLOUDS BELOW 12,000 FEET WITH NO
SIGNIFICANT WEATHER AND/OR OBSTRUCTIONS TO VISIBILITY.

NYZ071-072-176-178-NJZ106-104-280700-
NEW YORK CITY METRO AREA

CITY           SKY/WX    TMP DP  RH WIND       PRES   REMARKS
Central Park   CLOUDY    58  57  97 CALM      29.90S FOG
Wall St Helipt CLOUDY    57  55  93 NE7       29.88F FOG
Bronx Bot Gard   N/A     57  55  94 SE3       29.89R
LaGuardia APRT FOG       59  57  93 CALM      29.88R VSB 1/4
Kennedy INTL   FOG       56  56 100 SE7       29.89R VSB 1/4
Breezy Point     N/A     52 N/A N/A E6          N/A
Newark/Liberty FOG       56  56 100 E5        29.87R VSB 1/2
Teterboro      CLOUDY    59  57  93 SE3       29.86S FOG
$$

NYZ177-179-078>081-280700-
LONG ISLAND NEW YORK

CITY           SKY/WX    TMP DP  RH WIND       PRES   REMARKS
Jones Beach      N/A     54 N/A N/A E3          N/A
Matinecock PT    N/A     59 N/A N/A E1          N/A
Farmingdale    FOG       58  58 100 S9        29.89R VSB 1/2
MacArthur/ISP  CLOUDY    56  56 100 SE5       29.89S FOG
Shirley        CLOUDY    56  56 100 SE5       29.91S FOG
Mt Sinai Harb    N/A     55 N/A N/A CALM        N/A
Westhampton    CLOUDY    54  53  97 SE5       29.92F FOG
East Hampton   CLOUDY    52  52  99 SE3       29.91F FOG
Montauk          N/A     52  52 100 SE7       29.93F
$$

NYZ052-065-067-280700-
HUDSON VALLEY

CITY           SKY/WX    TMP DP  RH WIND       PRES   REMARKS
White Plains   DRZL/FOG  57  57 100 SE6       29.88S VSB 1/4
Larchmont Harb   N/A     52 N/A N/A N7          N/A
Croton O-T Hud   N/A     57 N/A N/A MISG        N/A
Newburgh       CLOUDY    59  59 100 CALM      29.88F FOG
Montgomery     CLOUDY    61  58  90 CALM      29.85S
Poughkeepsie   CLOUDY    60  57  89 CALM      29.86S
Albany         CLOUDY    63  57  81 S13G21    29.84S
$$

NJZ001-105-106-008-010-013-015-019>022-104-280700-
NEW JERSEY

CITY           SKY/WX    TMP DP  RH WIND       PRES   REMARKS
Newark/Liberty FOG       56  56 100 E5        29.87R VSB 1/2
Teterboro      CLOUDY    59  57  93 SE3       29.86S FOG
Caldwell       CLOUDY    58  57  97 E6        29.87S FOG
Somerville     CLOUDY    59  57  93 CALM      29.84S
Linden         CLOUDY    56  55  97 CALM      29.87F FOG
Perth Amboy      N/A     54 N/A N/A E3          N/A
Sussex         PTCLDY    58  58 100 CALM      29.87R
Andover          N/A     59  57  93 CALM      29.86R
Trenton        CLOUDY    60  59  96 CALM      29.86R
Millville      CLOUDY    64  62  93 S3        29.87S
Atlantic City  CLOUDY    62  57  83 S8        29.87S
Wrightstown    CLOUDY    63  61  92 S7        29.83F
Toms River     PTCLDY    62  60  93 S7        29.87F
Belmar         MOCLDY    59  58  96 S3        29.87F FOG
$$

PAZ047>061-062-071-280700-
EASTERN PENNSYLVANIA

CITY           SKY/WX    TMP DP  RH WIND       PRES   REMARKS
Philadelphia   LGT RAIN  68  63  84 SW3       29.86R
Allentown      CLOUDY    64  58  80 E7        29.84R
Scranton       CLEAR     66  61  84 VRB3      29.81S
$$

CTZ002-004>006-009-010-012-RIZ004-006-007-MAZ004-011-015-280700-
SOUTHERN NEW ENGLAND
 IN CT

CITY           SKY/WX    TMP DP  RH WIND       PRES   REMARKS
Bradley INTL   DRIZZLE   57  57 100 S5        29.89F FOG
Hartford       CLOUDY    59  58  96 S5        29.89F FOG
Danbury        FOG       57  57 100 SE5       29.89F VSB 3/4
Wtrbury/Oxford CLOUDY    57  54  88 SE6       29.90F VSB<1/4
Bridgeport     FOG       52  50  93 E8        29.89F VSB 1/2
Meriden        CLOUDY    60  58  92 S6        29.89F FOG
New Haven      CLOUDY    54  53  97 E8        29.89F FOG
Chester        FOG       55  55 100 VRB3      29.91F VSB<1/4
Groton         FOG       53  52  96 SE5       29.92F VSB 3/4
Wilimantic     CLOUDY    59  58  96 CALM      29.92F FOG

 IN RI

CITY           SKY/WX    TMP DP  RH WIND       PRES   REMARKS
Providence     CLOUDY    54  54 100 S7        29.94F FOG
Block Island   FOG       54  54 100 S10       29.93F VSB 1
Westerly       FOG       55  55 100 SE6       29.94S VSB 1/2
 IN MA

CITY           SKY/WX    TMP DP  RH WIND       PRES   REMARKS
Boston         CLOUDY    57  54  89 S6        29.93S
Worcester      FOG       55  54  96 S7        29.92S VSB 1/4
Westfield      CLOUDY    57  57 100 S3        29.89S FOG
Provincetown   CLOUDY    54  53  97 S8        29.97S
Nantucket      FOG       51  49  92 SE8       29.97F VSB 3/4
$$

ANZ330-335-338-340-345-350-353-355-280700-
COASTAL MARINE OBSERVATIONS


STATION/POSITION TIME  SKY/WX   TEMP    WIND        PRES    VSBY  WAVE
                                AIR SEA DIR/SP/G                  HT/PER
                 (UTC)          (F)     (DEG/KT/KT) (MB)    (MI)  (FT/S)
NY HARB ENTRANCE 0450            52 49  140/  6/  8 1011.9          4/10
20 S FIRE ISLAND 0550            54 49  190/ 14/ 16 1011.4          5/10
GREAT SOUTH BAY  0515            55 57  110/  4/  4   N/A
23 SSW MONTAUK P 0450            50 47              1013.7          6/10
15 E BARNEGAT LI 0530               51                N/A           5/11
HUDSON CANYON    0450            56 51  190/ 14/ 14 1013.1          5/10
KINGS POINT      0542            53 50  210/  4/  5 1011.7
EXECUTION ROCKS  NOT AVBL
CENTRAL LI SOUND 0545            48      80/  6/  8   N/A           0
EASTERN LI SOUND NOT AVBL
ROBBINS REEF     0548            54     150/  3/  4 1011.8
$$


>>>>>>>>>>>>>>>>>>>>>>>>>>>> KEY <<<<<<<<<<<<<<<<<<<<<<<<<<<
>                                                          <
>     SKY/WX - Sky Condition/Present Weather               <
>     TMP    - Temperature in Fahrenheit                   <
>     DP     - Dew Point in Fahrenheit                     <
>     RH     - Relative Humidity in Percent                <
>     WIND   - Direction (from) and Speed in MPH           <
>     PRES   - Mean Sea Level Pressure (inches of Hg)      <
>     WCI    - Wind Chill Index                            <
>     VSB    - VISIBILITY IN MILES                         <
>     HX     - HEAT INDEX                                  <
>     TC     - TEMPERATURE IN CELSIUS                      <
>     VRB    - VARIABLE WIND DIRECTION                     <
>                                                          <
>>>>>>>>>>>>>>>>>>>>>>>>>>>> KEY <<<<<<<<<<<<<<<<<<<<<<<<<<<




USA.gov is the U.S. government's official web portal to all federal, state and local government web resources and services.